| time (UTC) | temp F | wind direction | speed MPH | gust MPH | rain 1hr in | rain 24hr in | rain mn in | humidity % | barometer mb |
| 20260901111528 | 55 | 236 | 0.0 | 0.0 | 0.00 | 0.00 | 0.00 | 91 | 1010.4 |
| 20260901110027 | 55 | 236 | 0.0 | 0.0 | 0.00 | 0.00 | 0.00 | 91 | 1010.3 |
| 20260901104525 | 55 | 236 | 0.0 | 0.0 | 0.00 | 0.00 | 0.00 | 90 | 1010.1 |
| 20260901103023 | 56 | 236 | 0.0 | 0.0 | 0.00 | 0.00 | 0.00 | 89 | 1010.0 |
| 20260901101521 | 56 | 236 | 0.0 | 0.0 | 0.00 | 0.00 | 0.00 | 88 | 1010.1 |
| 20260901100021 | 57 | 236 | 0.0 | 0.0 | 0.00 | 0.00 | 0.00 | 88 | 1010.1 |
| 20260901094522 | 57 | 236 | 0.0 | 0.0 | 0.00 | 0.00 | 0.00 | 88 | 1010.0 |
| 20260901093015 | 57 | 236 | 0.0 | 0.0 | 0.00 | 0.00 | 0.00 | 87 | 1009.7 |
| 20260901091514 | 57 | 236 | 0.0 | 0.0 | 0.00 | 0.00 | 0.00 | 86 | 1009.6 |
| 20260901090013 | 58 | 236 | 0.0 | 0.0 | 0.00 | 0.00 | 0.00 | 85 | 1009.6 |
| 20260901084511 | 58 | 236 | 0.0 | 0.0 | 0.00 | 0.00 | 0.00 | 84 | 1009.5 |
| 20260901083009 | 59 | 236 | 0.0 | 1.0 | 0.00 | 0.00 | 0.00 | 84 | 1009.6 |
| 20260901081507 | 59 | 235 | 0.0 | 0.0 | 0.00 | 0.00 | 0.00 | 83 | 1009.6 |
| 20260901080006 | 60 | 235 | 0.0 | 0.0 | 0.00 | 0.00 | 0.00 | 82 | 1009.4 |
| 20260901074502 | 60 | 235 | 0.0 | 0.0 | 0.00 | 0.00 | 0.00 | 81 | 1009.3 |
| 20260901073102 | 61 | 236 | 0.0 | 0.0 | 0.00 | 0.00 | 0.00 | 79 | 1009.2 |
| 20260901071558 | 61 | 236 | 0.0 | 0.0 | 0.00 | 0.00 | 0.00 | 78 | 1009.1 |
| 20260901070055 | 61 | 236 | 0.0 | 0.0 | 0.00 | 0.00 | 0.00 | 78 | 1008.7 |
| 20260901064555 | 62 | 236 | 0.0 | 0.0 | 0.00 | 0.00 | 0.00 | 78 | 1008.7 |
| 20260901063054 | 62 | 236 | 0.0 | 0.0 | 0.00 | 0.00 | 0.00 | 76 | 1008.4 |
| 20260901061554 | 63 | 236 | 0.0 | 0.0 | 0.00 | 0.00 | 0.00 | 75 | 1008.3 |
| 20260901060053 | 64 | 236 | 0.0 | 0.0 | 0.00 | 0.00 | 0.00 | 74 | 1008.0 |
| 20260901054553 | 65 | 236 | 0.0 | 0.0 | 0.00 | 0.00 | 0.00 | 73 | 1007.9 |
| 20260901053054 | 65 | 236 | 0.0 | 0.0 | 0.00 | 0.00 | 0.00 | 71 | 1007.9 |
| 20260901051558 | 67 | 236 | 0.0 | 0.0 | 0.00 | 0.00 | 0.00 | 69 | 1007.8 |
| 20260901050052 | 68 | 236 | 0.0 | 0.0 | 0.00 | 0.00 | 0.00 | 67 | 1007.8 |
| 20260901044552 | 68 | 236 | 0.0 | 0.0 | 0.00 | 0.00 | 0.00 | 66 | 1007.8 |
| 20260901043054 | 69 | 236 | 0.0 | 0.0 | 0.00 | 0.00 | 0.00 | 65 | 1007.6 |
| 20260901041550 | 70 | 235 | 0.0 | 3.0 | 0.00 | 0.00 | 0.00 | 62 | 1007.5 |
| 20260901040109 | 72 | 350 | 0.0 | 2.0 | 0.00 | 0.00 | 0.00 | 59 | 1007.0 |
| 20260901034549 | 73 | 266 | 0.0 | 0.0 | 0.00 | 0.00 | 0.00 | 57 | 1006.9 |
| 20260901033053 | 74 | 266 | 0.0 | 5.0 | 0.00 | 0.00 | 0.00 | 55 | 1006.5 |
| 20260901031549 | 75 | 299 | 0.0 | 4.0 | 0.00 | 0.00 | 0.00 | 53 | 1006.2 |
| 20260901030048 | 77 | 274 | 0.0 | 0.0 | 0.00 | 0.00 | 0.00 | 51 | 1006.4 |
| 20260901024547 | 78 | 257 | 0.0 | 6.0 | 0.00 | 0.00 | 0.00 | 48 | 1006.4 |
| 20260901023046 | 79 | 44 | 0.0 | 3.0 | 0.00 | 0.00 | 0.00 | 45 | 1006.2 |
| 20260901021546 | 80 | 44 | 0.0 | 0.0 | 0.00 | 0.00 | 0.00 | 42 | 1006.1 |
| 20260901020045 | 82 | 44 | 0.0 | 0.0 | 0.00 | 0.00 | 0.00 | 37 | 1006.0 |
| 20260901014546 | 83 | 44 | 0.0 | 0.0 | 0.00 | 0.00 | 0.00 | 33 | 1006.1 |
| 20260901013103 | 84 | 44 | 0.0 | 0.0 | 0.00 | 0.00 | 0.00 | 29 | 1006.0 |
| 20260901011543 | 85 | 44 | 0.0 | 2.0 | 0.00 | 0.00 | 0.00 | 30 | 1006.1 |
| 20260901010043 | 86 | 44 | 0.0 | 1.0 | 0.00 | 0.00 | 0.00 | 27 | 1006.1 |
| 20260901004541 | 87 | 44 | 0.0 | 0.0 | 0.00 | 0.00 | 0.00 | 25 | 1006.0 |
| 20260901003039 | 85 | 74 | 0.0 | 3.0 | 0.00 | 0.00 | 0.00 | 26 | 1006.1 |
| 20260901001538 | 85 | 96 | 0.0 | 1.0 | 0.00 | 0.00 | 0.00 | 27 | 1006.2 |
| 20260901000037 | 86 | 121 | 0.0 | 3.0 | 0.00 | 0.00 | 0.00 | 26 | 1006.2 |
| 20260831234544 | 85 | 59 | 0.0 | 3.0 | 0.00 | 0.00 | 0.00 | 28 | 1006.3 |
| 20260831233033 | 86 | 57 | 0.0 | 2.0 | 0.00 | 0.00 | 0.00 | 27 | 1006.4 |
| 20260831231532 | 86 | 57 | 0.0 | 3.0 | 0.00 | 0.00 | 0.00 | 27 | 1006.5 |
| 20260831230028 | 85 | 56 | 0.0 | 3.0 | 0.00 | 0.00 | 0.00 | 29 | 1006.7 |
| 20260831224528 | 85 | 107 | 0.0 | 3.0 | 0.00 | 0.00 | 0.00 | 31 | 1006.9 |
| 20260831223026 | 84 | 168 | 0.0 | 5.0 | 0.00 | 0.00 | 0.00 | 33 | 1006.9 |
| 20260831221520 | 84 | 202 | 0.0 | 6.0 | 0.00 | 0.00 | 0.00 | 35 | 1007.1 |
| 20260831220022 | 83 | 248 | 0.0 | 5.0 | 0.00 | 0.00 | 0.00 | 37 | 1007.3 |
| 20260831214523 | 83 | 218 | 1.0 | 8.0 | 0.00 | 0.00 | 0.00 | 37 | 1007.4 |
| 20260831213016 | 82 | 171 | 0.0 | 3.0 | 0.00 | 0.00 | 0.00 | 36 | 1007.5 |
| 20260831211514 | 82 | 108 | 1.0 | 5.0 | 0.00 | 0.00 | 0.00 | 37 | 1007.7 |
| 20260831210009 | 81 | 207 | 0.0 | 2.0 | 0.00 | 0.00 | 0.00 | 37 | 1007.9 |
| 20260831204506 | 80 | 50 | 0.0 | 2.0 | 0.00 | 0.00 | 0.00 | 37 | 1008.0 |
| 20260831203004 | 79 | 189 | 0.0 | 3.0 | 0.00 | 0.00 | 0.00 | 38 | 1008.2 |
| 20260831201607 | 79 | 88 | 0.0 | 7.0 | 0.00 | 0.00 | 0.00 | 39 | 1008.5 |
| 20260831200138 | 78 | 284 | 0.0 | 4.0 | 0.00 | 0.00 | 0.00 | 40 | 1008.6 |
| 20260831194600 | 77 | 113 | 0.0 | 4.0 | 0.00 | 0.00 | 0.00 | 43 | 1008.8 |
| 20260831193051 | 76 | 104 | 0.0 | 5.0 | 0.00 | 0.00 | 0.00 | 43 | 1008.9 |
| 20260831191553 | 75 | 32 | 0.0 | 0.0 | 0.00 | 0.00 | 0.00 | 42 | 1009.0 |
| 20260831190046 | 75 | 106 | 0.0 | 4.0 | 0.00 | 0.00 | 0.00 | 48 | 1009.3 |
| 20260831184547 | 74 | 35 | 0.0 | 4.0 | 0.00 | 0.00 | 0.00 | 47 | 1009.5 |
| 20260831183039 | 73 | 34 | 0.0 | 1.0 | 0.00 | 0.00 | 0.00 | 52 | 1009.6 |
| 20260831181545 | 73 | 34 | 0.0 | 3.0 | 0.00 | 0.00 | 0.00 | 54 | 1009.8 |
| 20260831180034 | 72 | 34 | 0.0 | 0.0 | 0.00 | 0.00 | 0.00 | 55 | 1010.0 |
| 20260831174538 | 72 | 34 | 0.0 | 3.0 | 0.00 | 0.00 | 0.00 | 54 | 1010.1 |
| 20260831173033 | 72 | 34 | 0.0 | 3.0 | 0.00 | 0.00 | 0.00 | 55 | 1010.3 |
| 20260831171528 | 71 | 34 | 0.0 | 1.0 | 0.00 | 0.00 | 0.00 | 56 | 1010.4 |
| 20260831170033 | 70 | 33 | 0.0 | 3.0 | 0.00 | 0.00 | 0.00 | 58 | 1010.5 |
| 20260831164522 | 69 | 33 | 0.0 | 0.0 | 0.00 | 0.00 | 0.00 | 59 | 1010.6 |
| 20260831163020 | 69 | 25 | 0.0 | 0.0 | 0.00 | 0.00 | 0.00 | 60 | 1010.8 |
| 20260831161516 | 66 | 25 | 0.0 | 0.0 | 0.00 | 0.00 | 0.00 | 65 | 1010.8 |
| 20260831160015 | 66 | 25 | 0.0 | 0.0 | 0.00 | 0.00 | 0.00 | 66 | 1010.9 |
| 20260831154511 | 63 | 25 | 0.0 | 0.0 | 0.00 | 0.00 | 0.00 | 72 | 1011.0 |
| 20260831153011 | 62 | 25 | 0.0 | 0.0 | 0.00 | 0.00 | 0.00 | 72 | 1011.1 |
| 20260831151508 | 62 | 25 | 0.0 | 0.0 | 0.00 | 0.00 | 0.00 | 71 | 1011.2 |
| 20260831150008 | 61 | 25 | 0.0 | 0.0 | 0.00 | 0.00 | 0.00 | 75 | 1011.3 |
| 20260831144507 | 60 | 25 | 0.0 | 1.0 | 0.00 | 0.00 | 0.00 | 75 | 1011.3 |
| 20260831143007 | 58 | 25 | 0.0 | 0.0 | 0.00 | 0.00 | 0.00 | 76 | 1011.3 |
| 20260831141506 | 58 | 25 | 0.0 | 0.0 | 0.00 | 0.00 | 0.00 | 77 | 1011.3 |
| 20260831140012 | 58 | 25 | 0.0 | 0.0 | 0.00 | 0.00 | 0.00 | 76 | 1011.3 |
| 20260831134505 | 59 | 25 | 0.0 | 0.0 | 0.00 | 0.00 | 0.00 | 74 | 1011.3 |
| 20260831133003 | 59 | 25 | 0.0 | 0.0 | 0.00 | 0.00 | 0.00 | 74 | 1011.3 |
| 20260831131502 | 59 | 25 | 0.0 | 0.0 | 0.00 | 0.00 | 0.00 | 74 | 1011.4 |
| 20260831130001 | 59 | 309 | 0.0 | 0.0 | 0.00 | 0.00 | 0.00 | 75 | 1011.5 |
| 20260831124600 | 58 | 310 | 0.0 | 0.0 | 0.00 | 0.00 | 0.00 | 75 | 1011.6 |
| 20260831123059 | 58 | 309 | 0.0 | 1.0 | 0.00 | 0.00 | 0.00 | 76 | 1011.6 |
| 20260831121558 | 58 | 324 | 0.0 | 0.0 | 0.00 | 0.00 | 0.00 | 76 | 1011.8 |
| 20260831120129 | 58 | 320 | 0.0 | 0.0 | 0.00 | 0.00 | 0.00 | 76 | 1012.0 |
| 20260831114555 | 58 | 320 | 0.0 | 1.0 | 0.00 | 0.00 | 0.00 | 75 | 1012.0 |
| 20260831113057 | 58 | 320 | 0.0 | 0.0 | 0.00 | 0.00 | 0.00 | 76 | 1012.1 |